www.pogodaiklimat.ru

Погода и климат >> Архив погоды >> Бразилия >> Минас-Жерайс >> Итаобин


ПОГОДА в Итаобине

  • Прогноз погоды в Итаобине
  • Монитор погоды в Итаобине

АРХИВ ПОГОДЫ в Итаобине

Время (UTC), дата Ветер
(напр.,м/с)
 
Видим.   Явления Облачность Т
(С)
Тd
(С)
f
(%)
Тe
(С)
Тes
(С)
Комфортность P
(гПа)
Po
(гПа)
Тmin
(С)
Tmax
(С)
R
(мм)
R24
(мм)
S
(см)
13 14.08 СВ 2
{3}
н/о н/о +23.7 +14.8 57 +26 +26 жарко 1023.2 991.7
14 14.08 СВ 1
{4}
н/о н/о +26.0 +13.9 47 +28 +28 жарко 1022.5 991.3
15 14.08 В 2
{7}
н/о н/о +27.9 +12.4 38 +29 +29 жарко 1021.7 990.7
16 14.08 В 2
{5}
н/о н/о +29.0 +11.1 33 +30 +30 жарко 1020.4 989.5
19 14.08 ЮВ 1
{4}
н/о н/о +29.4 +11.5 33 +30 +30 жарко 1018.7 987.9
20 14.08 В 2
{3}
н/о н/о +28.2 +11.5 35 +29 +29 жарко 1019.2 988.3
21 14.08 В 2
{4}
н/о н/о +26.5 +12.9 43 +28 +28 жарко 1019.8 988.7
22 14.08 В 2
{5}
н/о н/о +25.7 +14.0 48 +28 +28 жарко 1020.5 989.3
23 14.08 В 2
{6}
н/о н/о +24.9 +14.8 53 +28 +28 жарко 1021.5 990.2
00 15.08 В 3
{5}
н/о н/о +24.0 +15.9 61 +27 +27 жарко 1022.3 990.9
01 15.08 В 2
{6}
н/о н/о +23.5 +15.8 62 +27 +27 душно 1023.1 991.6
02 15.08 В 2
{4}
н/о н/о +23.1 +16.0 64 +28 +28 душно 1023.5 991.9
03 15.08 ЮВ 1
{4}
н/о н/о +22.9 +15.8 64 +27 +27 душно 1023.7 992.1
04 15.08 В 2
{5}
н/о н/о +21.5 +15.3 68 +25 +25 комфорт 1023.9 992.1
05 15.08 В 2
{4}
н/о н/о +21.1 +15.2 69 +24 +24 комфорт 1023.5 991.7
06 15.08 В 1
{3}
н/о н/о +21.1 +15.0 68 +24 +24 комфорт 1023.5 991.7
07 15.08 В 2
{4}
н/о н/о +20.8 +14.5 67 +24 +24 комфорт 1023.6 991.8
08 15.08 ЮВ 1
{4}
н/о н/о +20.5 +14.5 68 +24 +24 комфорт 1024.0 992.1
09 15.08 ЮВ 2
{4}
н/о н/о +20.4 +14.4 68 +24 +24 комфорт 1024.6 992.7
10 15.08 ЮВ 2
{5}
н/о н/о +20.4 +14.4 68 +24 +24 комфорт 1025.2 993.3
11 15.08 ЮВ 1
{5}
н/о н/о +20.5 +14.1 67 +24 +24 комфорт 1026.3 994.4
12 15.08 ЮВ 2
{5}
н/о н/о +20.8 +13.1 61 +24 +24 комфорт 1027.5 995.6
13 15.08 Ю 2
{5}
н/о н/о +21.4 +12.8 58 +24 +24 комфорт 1027.8 995.9
14 15.08 ЮВ 2
{6}
н/о н/о +22.3 +13.1 56 +25 +25 комфорт 1027.4 995.6
15 15.08 ЮВ 2
{5}
н/о н/о +22.6 +13.0 55 +26 +26 жарко 1026.6 994.9
16 15.08 ЮВ 1
{5}
н/о н/о +23.2 +12.9 52 +26 +26 жарко 1025.7 994.1
17 15.08 ЮВ 2
{4}
н/о н/о +22.2 +13.2 57 +25 +25 комфорт 1025.0 993.3
18 15.08 В 2
{5}
н/о н/о +22.1 +13.4 58 +25 +25 комфорт 1024.6 992.9
19 15.08 В 2
{5}
н/о н/о +21.2 +13.6 62 +24 +24 комфорт 1025.0 993.2
20 15.08 В 2
{4}
н/о н/о +21.3 +13.8 62 +24 +24 комфорт 1025.4 993.6
21 15.08 В 1
{4}
н/о н/о +21.1 +13.3 61 +23 +23 комфорт 1025.3 993.5
22 15.08 В 1
{3}
н/о н/о +20.5 +13.6 65 +24 +24 комфорт 1025.7 993.8
23 15.08 В 2
{4}
н/о н/о +20.3 +13.3 64 +23 +23 комфорт 1026.3 994.3
00 16.08 В 1
{3}
н/о н/о +20.2 +12.9 63 +23 +23 комфорт 1026.4 994.4
01 16.08 В 2
{4}
н/о н/о +20.3 +12.6 61 +23 +23 комфорт 1026.7 994.7
03 16.08 ЮВ 1
{4}
н/о н/о +19.6 +11.2 58 +22 +22 комфорт 1027.0 994.9
04 16.08 ЮВ 1
{4}
н/о н/о +19.3 +11.4 60 +21 +21 комфорт 1026.3 994.2
05 16.08 ЮВ 1
{4}
н/о н/о +18.7 +11.6 63 +20 +20 1025.8 993.7
06 16.08 штиль 0
{4}
н/о н/о +18.3 +11.5 65 +19 +19 1025.3 993.2
07 16.08 штиль 0
{3}
н/о н/о +18.2 +11.8 66 +18 +18 1024.9 992.8
08 16.08 штиль 0
{1}
н/о н/о +18.5 +12.3 67 +19 +19 1025.1 993.0
09 16.08 В 1
{4}
н/о н/о +18.7 +12.5 67 +21 +21 комфорт 1025.5 993.4
10 16.08 ЮВ 2
{4}
н/о н/о +18.8 +12.4 66 +20 +20 1026.2 994.1
11 16.08 В 2
{5}
н/о н/о +19.1 +12.1 64 +21 +21 комфорт 1026.8 994.7
12 16.08 ЮВ 2
{5}
н/о н/о +19.5 +11.9 61 +22 +22 комфорт 1027.4 995.3
13 16.08 СВ 3
{5}
н/о н/о +21.0 +12.2 57 +24 +24 комфорт 1027.1 995.2
14 16.08 Ю 1
{5}
н/о н/о +22.4 +11.9 51 +25 +25 комфорт 1026.2 994.5
15 16.08 В 2
{6}
н/о н/о +23.3 +12.0 49 +26 +26 жарко 1025.1 993.5
16 16.08 В 2
{4}
н/о н/о +23.1 +11.8 49 +26 +26 жарко 1024.7 993.1
17 16.08 В 2
{4}
н/о н/о +23.3 +11.7 48 +26 +26 жарко 1023.6 992.0
18 16.08 В 2
{4}
н/о н/о +23.9 +11.8 47 +26 +26 жарко 1022.7 991.2
19 16.08 ЮВ 1
{4}
н/о н/о +24.0 +10.9 44 +25 +25 комфорт 1022.3 990.9
20 16.08 ЮВ 2
{3}
н/о н/о +23.5 +10.6 44 +25 +25 комфорт 1022.5 991.0
21 16.08 В 1
{4}
н/о н/о +22.9 +10.6 46 +25 +25 комфорт 1022.8 991.2
22 16.08 Ю 1
{3}
н/о н/о +22.2 +10.7 48 +24 +24 комфорт 1023.4 991.7
23 16.08 ЮВ 2
{5}
н/о н/о +21.8 +11.4 52 +24 +24 комфорт 1024.1 992.4
00 17.08 ЮВ 1
{5}
н/о н/о +21.6 +10.9 51 +23 +23 комфорт 1024.4 992.6
01 17.08 ЮВ 1
{4}
н/о н/о +20.3 +11.1 55 +23 +23 комфорт 1024.7 992.8
02 17.08 В 1
{3}
н/о н/о +19.2 +11.6 61 +21 +21 комфорт 1025.1 993.1
03 17.08 В 2
{3}
н/о н/о +18.8 +12.0 65 +20 +20 1024.9 992.8
04 17.08 В 1
{3}
н/о н/о +18.0 +11.5 66 +19 +19 1024.3 992.2
05 17.08 В 1
{4}
н/о н/о +17.2 +11.6 70 +18 +18 1023.9 991.7
06 17.08 В 1
{2}
н/о н/о +16.4 +11.4 72 +17 +17 1023.5 991.2
07 17.08 ЮВ 1
{2}
н/о н/о +16.2 +11.9 76 +18 +18 1023.1 990.8
08 17.08 Ю 1
{1}
н/о н/о +14.7 +11.0 78 +16 +16 1023.4 990.9
09 17.08 СВ 1
{1}
н/о н/о +15.2 +11.4 78 +16 +16 1024.0 991.6
10 17.08 штиль 0
{1}
н/о н/о +16.0 +12.0 77 +16 +16 1024.4 992.0
11 17.08 штиль 0
{1}
н/о н/о +17.2 +12.7 75 +17 +17 1024.6 992.4
12 17.08 штиль 0
{1}
н/о н/о +19.1 +12.7 66 +20 +20 1024.7 992.7
13 17.08 СВ 2
{3}
н/о н/о +22.8 +13.7 56 +26 +26 жарко 1024.0 992.4
14 17.08 СВ 2
{5}
н/о н/о +25.0 +13.2 48 +27 +27 жарко 1023.0 991.6
15 17.08 СВ 2
{4}
н/о н/о +25.5 +12.4 44 +27 +27 жарко 1021.9 990.6
16 17.08 С 1
{3}
н/о н/о +26.1 +12.7 43 +28 +28 жарко 1020.7 989.5
17 17.08 СВ 2
{4}
н/о н/о +26.2 +12.7 43 +28 +28 жарко 1019.5 988.4
18 17.08 СВ 2
{4}
н/о н/о +26.2 +12.5 43 +28 +28 жарко 1018.7 987.6
19 17.08 СВ 2
{4}
н/о н/о +25.8 +13.0 45 +28 +28 жарко 1018.6 987.5
20 17.08 В 1
{4}
н/о н/о +25.3 +13.4 48 +27 +27 жарко 1018.7 987.5
21 17.08 В 2
{3}
н/о н/о +24.6 +13.5 50 +27 +27 жарко 1018.8 987.5
22 17.08 В 2
{3}
н/о н/о +23.9 +13.9 54 +26 +26 жарко 1019.2 987.8
23 17.08 В 2
{3}
н/о н/о +23.2 +14.1 57 +27 +27 душно 1019.8 988.3
00 18.08 В 2
{3}
н/о н/о +22.5 +14.2 59 +26 +26 жарко 1020.4 988.9
01 18.08 В 1
{3}
н/о н/о +22.3 +14.5 61 +26 +26 жарко 1021.1 989.5
02 18.08 ЮВ 1
{2}
н/о н/о +22.1 +14.9 64 +26 +26 душно 1021.3 989.7
03 18.08 В 1
{3}
н/о н/о +21.8 +15.0 65 +25 +25 комфорт 1021.5 989.8
04 18.08 В 1
{3}
н/о н/о +21.3 +15.7 70 +25 +25 комфорт 1021.3 989.6
05 18.08 В 1
{2}
н/о н/о +20.8 +16.0 74 +26 +26 душно 1020.9 989.2
06 18.08 В 2
{3}
н/о н/о +19.8 +16.0 79 +23 +23 комфорт 1020.9 989.1
07 18.08 штиль 0
{3}
н/о н/о +19.6 +16.2 81 +22 +22 комфорт 1020.7 988.8
08 18.08 ЮВ 1
{2}
н/о н/о +19.6 +16.1 80 +23 +23 комфорт 1020.4 988.5
09 18.08 ЮВ 1
{2}
н/о н/о +19.2 +15.8 81 +22 +22 комфорт 1020.9 989.0
10 18.08 штиль 0
{1}
н/о н/о +19.5 +16.0 80 +21 +21 комфорт 1021.5 989.6
11 18.08 штиль 0
{1}
н/о н/о +21.6 +16.1 71 +25 +25 комфорт 1022.0 990.3
12 18.08 СВ 1
{2}
н/о н/о +22.9 +15.5 63 +27 +27 душно 1022.6 991.0
13 18.08 СВ 1
{3}
н/о н/о +24.5 +15.2 56 +27 +27 жарко 1022.1 990.7
14 18.08 СВ 1
{2}
н/о н/о +25.1 +14.5 52 +28 +28 жарко 1021.1 989.8
15 18.08 СВ 1
{3}
н/о н/о +26.7 +14.4 47 +29 +29 жарко 1019.7 988.6
16 18.08 СВ 2
{3}
н/о н/о +29.0 +14.4 41 +31 +31 жарко 1018.4 987.6
17 18.08 СВ 2
{4}
н/о н/о +29.4 +14.0 39 +31 +31 жарко 1017.2 986.5
18 18.08 СВ 3
{5}
н/о н/о +29.1 +14.0 40 +31 +31 жарко 1016.2 985.5
19 18.08 В 2
{5}
н/о н/о +29.4 +13.7 38 +31 +31 жарко 1015.8 985.1
20 18.08 СВ 2
{4}
н/о н/о +28.2 +13.7 41 +30 +30 жарко 1015.8 985.0
21 18.08 В 2
{3}
н/о н/о +27.4 +13.5 42 +29 +29 жарко 1015.9 985.0
22 18.08 В 3
{4}
н/о н/о +26.2 +14.4 48 +29 +29 жарко 1016.6 985.6
23 18.08 В 2
{5}
н/о н/о +25.2 +14.9 53 +28 +28 жарко 1017.4 986.2
00 19.08 В 2
{5}
н/о н/о +24.5 +15.2 56 +27 +27 жарко 1017.9 986.6
01 19.08 штиль 0
{4}
н/о н/о +23.3 +15.0 60 +27 +27 душно 1018.7 987.3
02 19.08 СВ 1
{2}
н/о н/о +22.6 +15.3 63 +26 +26 жарко 1019.2 987.7
03 19.08 В 1
{2}
н/о н/о +22.2 +15.5 66 +26 +26 душно 1019.4 987.9
04 19.08 В 2
{3}
н/о н/о +21.9 +15.9 69 +26 +26 душно 1018.9 987.3
05 19.08 В 2
{3}
н/о н/о +21.2 +16.0 72 +25 +25 комфорт 1018.6 987.0
06 19.08 В 1
{2}
н/о н/о +20.5 +16.1 76 +25 +25 комфорт 1018.3 986.6
07 19.08 ЮВ 1
{2}
н/о н/о +18.7 +14.9 79 +21 +21 комфорт 1018.2 986.3
08 19.08 ЮВ 1
{2}
н/о н/о +19.5 +16.2 81 +23 +23 комфорт 1018.1 986.3
09 19.08 Ю 2
{3}
н/о н/о +17.4 +14.6 84 +18 +18 1018.8 986.8
10 19.08 ЮВ 1
{3}
н/о н/о +17.9 +15.0 83 +19 +19 1019.5 987.5
11 19.08 Ю 1
{2}
н/о н/о +20.6 +16.2 76 +25 +25 комфорт 1019.7 988.0
12 19.08 штиль 0
{1}
н/о н/о +22.9 +16.9 69 +28 +28 душно 1019.7 988.2
13 19.08 СЗ 1
{2}
н/о н/о +24.7 +16.5 60 +28 +28 душно 1019.0 987.7
14 19.08 ЮЗ 1
{2}
н/о н/о +27.4 +16.1 50 +31 +31 душно 1017.6 986.6
15 19.08 С 1
{2}
н/о н/о +30.7 +12.7 33 +32 +32 жарко 1015.9 985.3
16 19.08 СВ 2
{4}
н/о н/о +33.0 +6.9 20 +31 +31 жарко 1014.7 984.4
17 19.08 СВ 2
{4}
н/о н/о +32.8 +8.7 23 +32 +32 жарко 1013.6 983.3
18 19.08 СВ 1
{4}
н/о н/о +32.5 +7.8 22 +31 +31 жарко 1012.7 982.4
19 19.08 СВ 1
{4}
н/о н/о +33.5 +5.9 18 +31 +31 жарко 1012.5 982.3
20 19.08 В 2
{4}
н/о н/о +32.4 +3.3 16 +30 +30 жарко 1012.9 982.6
21 19.08 В 1
{4}
н/о н/о +30.3 +5.7 21 +29 +29 жарко 1013.6 983.1
22 19.08 В 2
{4}
н/о н/о +29.1 +6.8 25 +28 +28 жарко 1014.6 983.9
23 19.08 В 2
{4}
н/о н/о +27.4 +8.4 30 +27 +27 жарко 1015.5 984.6
00 20.08 ЮВ 1
{3}
н/о н/о +26.5 +11.7 40 +28 +28 жарко 1016.4 985.4
01 20.08 В 2
{3}
н/о н/о +25.7 +13.2 46 +28 +28 жарко 1017.1 986.0
02 20.08 В 1
{3}
н/о н/о +24.8 +13.9 51 +27 +27 жарко 1017.5 986.3
03 20.08 В 1
{4}
н/о н/о +24.5 +14.6 54 +27 +27 жарко 1017.4 986.2
04 20.08 штиль 0
{2}
н/о н/о +20.8 +13.3 62 +23 +23 комфорт 1017.5 985.9
05 20.08 Ю 2
{2}
н/о н/о +20.3 +13.2 64 +23 +23 комфорт 1017.5 985.8
06 20.08 Ю 2
{3}
н/о н/о +19.2 +12.9 67 +21 +21 комфорт 1017.7 985.9
07 20.08 Ю 2
{3}
н/о н/о +18.7 +13.2 70 +20 +20 1018.0 986.1
08 20.08 Ю 2
{3}
н/о н/о +18.1 +13.1 73 +19 +19 1018.7 986.7
09 20.08 Ю 2
{3}
н/о н/о +17.5 +12.9 74 +18 +18 1019.6 987.5
10 20.08 Ю 1
{3}
н/о н/о +17.6 +13.3 76 +19 +19 1020.6 988.5
11 20.08 Ю 2
{3}
н/о н/о +20.2 +14.7 71 +23 +23 комфорт 1020.9 989.1
12 20.08 штиль 0
{2}
н/о н/о +24.5 +17.6 65 +29 +29 душно 1020.5 989.2
13 20.08 СВ 2
{4}
н/о н/о +26.2 +17.3 58 +30 +30 душно 1020.5 989.3
14 20.08 СВ 2
{4}
н/о н/о +28.5 +17.1 50 +32 +32 душно 1019.3 988.4
15 20.08 СВ 2
{4}
н/о н/о +30.6 +13.3 35 +32 +32 жарко 1017.7 987.1
16 20.08 СВ 2
{4}
н/о н/о +32.0 +8.9 24 +31 +31 жарко 1016.6 986.1
17 20.08 СВ 2
{4}
н/о н/о +32.5 +8.5 23 +31 +31 жарко 1015.2 984.8
18 20.08 СВ 2
{5}
н/о н/о +32.4 +8.8 23 +31 +31 жарко 1014.5 984.1
19 20.08 СВ 3
{5}
н/о н/о +32.3 +9.7 25 +32 +32 жарко 1014.6 984.2
20 20.08 СВ 2
{5}
н/о н/о +31.1 +9.6 26 +30 +30 жарко 1015.3 984.8
21 20.08 СВ 2
{4}
н/о н/о +29.4 +10.2 30 +29 +29 жарко 1015.8 985.1
01 21.08 В 1
{3}
н/о н/о +25.2 +15.0 53 +28 +28 жарко 1019.4 988.2
02 21.08 В 2
{3}
н/о н/о +24.7 +14.8 54 +27 +27 жарко 1019.9 988.6
03 21.08 В 2
{3}
н/о н/о +23.9 +16.3 62 +27 +27 жарко 1019.4 988.0
04 21.08 В 1
{3}
н/о н/о +23.2 +16.7 67 +28 +28 душно 1018.8 987.4
05 21.08 ЮВ 1
{3}
н/о н/о +22.5 +16.5 69 +27 +27 душно 1018.8 987.3
06 21.08 В 1
{2}
н/о н/о +21.0 +16.3 75 +26 +26 душно 1018.6 987.0
07 21.08 Ю 1
{2}
н/о н/о +19.4 +15.3 77 +22 +22 комфорт 1019.2 987.4
08 21.08 штиль 0
{2}
н/о н/о +19.4 +15.6 79 +21 +21 комфорт 1019.3 987.5
09 21.08 Ю 1
{2}
н/о н/о +19.8 +15.7 77 +23 +23 комфорт 1019.9 988.1
10 21.08 Ю 1
{2}
н/о н/о +20.0 +15.6 76 +24 +24 комфорт 1020.7 988.9
11 21.08 Ю 1
{2}
н/о н/о +21.6 +16.3 72 +25 +25 комфорт 1021.2 989.5
12 21.08 штиль 0
{2}
н/о н/о +23.8 +17.1 66 +28 +28 душно 1021.1 989.7
13 21.08 ЮВ 1
{3}
н/о н/о +26.5 +16.6 55 +30 +30 душно 1020.7 989.6

 

Местоположение метеостанции Итаобин (Минас-Жерайс, Бразилия): широта -16.58 долгота -41.48 высота над уровнем моря 268 м.

В архиве по умолчанию представлена погода в Итаобине за последнюю неделю. Архивные данные за месяц целиком и за предыдущие месяцы, начиная с января 2011 года, Вы можете получить, выбрав интересующий диапазон дат из раскрывающегося списка и нажав кнопку "Ввод!".


*Определитесь, кто Вы:
робот инопланетянин человек

Внимание! Время в таблицах - всемирное. Для получения местного времени необходимо прибавить поправку, которая равна -3 ч.

Смотрите также архив погоды в соседних городах и на ближайших метеорологических станциях:

Погода в Педра-Азуле (Минас-Жерайс, Бразилия) (68 км)
Погода в Арасуаи (Минас-Жерайс, Бразилия) (69 км)
Погода в Агуас-Вермельясе (Минас-Жерайс, Бразилия) (92 км)
Погода в Альменаре (Минас-Жерайс, Бразилия) (97 км)
Погода в Салинасе (Минас-Жерайс, Бразилия) (101 км)
Погода в Рио-Пардо-де-Минасе (Минас-Жерайс, Бразилия) (139 км)
Погода в Теофилу-Отони (Минас-Жерайс, Бразилия) (147 км)
Погода в Капелинье (Минас-Жерайс, Бразилия) (157 км)
Погода в Серра-дуз-Айморесе (Баия, Бразилия) (188 км)
Погода в Витория-да-Конкисте (Баия, Бразилия) (192 км)

Пояснения к столбцам:

Ветер - указаны скорость ветра в м/с - средняя за 10 мин, порывы в срок и между сроками (в фигурных скобках) и направление, откуда дует ветер: С - северный, СВ - северо-восточный, В - восточный, ЮВ - юго-восточный, Ю - южный, ЮЗ - юго-западный, З - западный, СЗ - северо-западный.
Видимость - горизонтальная дальность видимости в метрах или километрах. При видимости от 1 до 10 км при отсутствии осадков обычно наблюдается дымка, при ухудшении видимости до 1 км и менее - туман. В сухую погоду видимость может ухудшаться дымом, пылью или мглою.
Явления - указаны атмосферные явления, наблюдавшиеся в срок или в последний час перед сроком; фигурными скобками обозначены явления, наблюдавшиеся между сроками (за 1-3 часа до срока); квадратными скобками обозначены град или гололедные отложения с указанием их диаметра в мм.
Облачность - указаны через наклонную черту общая и нижняя облачность в баллах и высота нижней границы облаков в метрах; квадратными скобками обозначены формы облаков: Ci - перистые, Cs - перисто-слоистые, Cc - перисто-кучевые, Ac - высококучевые, As - высокослоистые, Sc - слоисто-кучевые, Ns - слоисто-дождевые, Cu - кучевые, Cb - кучево-дождевые. Подробнее классификацию облаков см. в Атласе облаков (PDF).
T - Температура воздуха - температура, измеренная на высоте 2 м над землей.
Td - Температура точки росы - температура, при понижении до которой содержащийся в воздухе водяной пар достигнет насыщения.
f - Относительная влажность воздуха - влажноcть воздуха, измеренная на высоте 2 м над землей.
Te - Эффективная температура - температура, которую ощущает одетый по сезону человек в тени. Характеристика душности погоды. При расчете учитывается влияние влажности воздуха и скорости ветра на теплоощущения человека.
Tes - Эффективная температура на солнце - температура, которую ощущает человек, с поправкой на солнечный нагрев. Характеристика знойности погоды. Зависит от высоты солнца над горизонтом, облачности и скорости ветра. Ночью, в пасмурную погоду, а также при ветре 12 м/с и более поправка равна нулю.
P - Атмосферное давление - приведенное к уровню моря атмосферное давление.
Po - Атмосферное давление - измеренное на уровне метеостанции атмосферное давление.
Tmin - Минимальная температура - минимум температуры воздуха на высоте 2 м над землей.
Tmax - Максимальная температура - максимум температуры воздуха на высоте 2 м над землей.
R - Количество осадков - Количество выпавших осадков за период времени, мм. При наведении курсора мыши на число - период времени, за который выпало указанное количество осадков.
R24 - Количество осадков - Количество выпавших осадков за 24 часа, мм.
S - Снежный покров - Высота снежного покрова, см. При наведении курсора мыши на число - состояние снежного покрова и степень покрытия местности в баллах.